User: anonymous   Login
Location: Unspecified
(0.0000°N, 0.0000°E)
Time: 19:26:19
(UTC+00:00)
Language:

STARLINK-4692 - Orbit

View from above orbital plane
View from above orbital plane
View from above satellite
View from above satellite

Ground track
Ground track

The orbit is defined by the following mean orbital elements,

1 53603U          26145.33607000 +.00000000 +00000-0 +31275-6 0 00001
2 53603  53.2140 255.2138 0001015  85.6673 274.4435 15.08841175    01
Epoch (UTC): 25 May 2026 08:03:56
Eccentricity: 0.0001015
inclination: 53.2140°
perigee height: 539 km
apogee height: 540 km
right ascension of ascending node: 255.2138°
argument of perigee: 85.6673°
revolutions per day: 15.08841175
mean anomaly at epoch: 274.4435°

The dashed part of the orbit path shows where the satellite is in the earth's shadow,  

DLR